Stations météo

Publicité
Dorans, France (7296): Température de l'air & dewpoint: 11.07.2018 06:00:00 - 17.07.2018 06:00:00 (CEST)Dorans, France (7296): Température de l'air 5cm: 11.07.2018 06:00:00 - 17.07.2018 06:00:00 (CEST)Dorans, France (7296): Température de l'air -20cm & Température de l'air -100cm: 11.07.2018 06:00:00 - 17.07.2018 06:00:00 (CEST)Dorans, France (7296): Vitesse du vent & gusts: 11.07.2018 06:00:00 - 17.07.2018 06:00:00 (CEST)Dorans, France (7296): Direction du vent: 11.07.2018 06:00:00 - 17.07.2018 06:00:00 (CEST)Dorans, France (7296): reduced air pressure: 11.07.2018 06:00:00 - 17.07.2018 06:00:00 (CEST)Dorans, France (7296): visibility: 11.07.2018 06:00:00 - 17.07.2018 06:00:00 (CEST)Dorans, France (7296): Quantités de précipitations: 11.07.2018 06:00:00 - 17.07.2018 06:00:00 (CEST)
Date & Time tt [°C] td [°C] tt 5cm [°C] tt -20cm [°C] tt -100cm [°C] ff [km/h] ff [knt] fx [km/h] fx [knt] dd ppp [hPa] vv [km] rr [mm]
17.07.2018 06:00:00 15,9 12,6 12,1 22,5 18,5 5 3 9 5 WSW 1015,6 20 0,0
17.07.2018 05:00:00 15,2 12,9 12,6 22,7 18,5 5 3 9 5 WSW 1015,2 20 0,0
17.07.2018 04:00:00 15,8 13,3 13,5 22,9 18,5 6 3 10 5 WSW 1014,9 20 0,0
17.07.2018 03:00:00 17,1 13,8 14,1 23,1 18,5 6 4 11 6 SW 1014,6 20 0,0
17.07.2018 02:00:00 18,2 13,7 14,8 23,3 18,5 3 2 5 3 W 1014,1 20 0,0
17.07.2018 01:00:00 18,3 13,6 15,5 23,4 18,5 3 1 5 3 E 1014,0 20 0,0
17.07.2018 00:00:00 18,9 13,5 16,1 23,6 18,5 4 2 5 3 W 1013,7 20 0,0
16.07.2018 23:00:00 20,6 13,8 17,7 23,8 18,5 3 2 8 4 NNW 1013,0 20 0,0
16.07.2018 22:00:00 21,9 13,5 18,1 23,9 18,5 3 2 12 6 E 1011,9 20 0,0
16.07.2018 21:00:00 24,4 12,7 22,1 23,9 18,5 6 3 22 12 E 1010,9 20 0,0
16.07.2018 20:00:00 25,4 12,3 25,1 23,8 18,5 10 6 22 12 E 1010,0 20 0,0
16.07.2018 19:00:00 27,4 11,8 28,6 23,6 18,5 10 6 22 12 E 1009,2 20 0,0
16.07.2018 18:00:00 28,5 12,4 31,5 23,3 18,5 9 5 29 16 ENE 1008,9 20 0,0
16.07.2018 17:00:00 29,5 10,6 33,6 23,0 18,5 6 3 24 13 WNW 1009,1 17 0,0
16.07.2018 16:00:00 28,3 10,0 38,1 22,6 18,4 7 4 23 12 SSW 1009,6 18 0,0
16.07.2018 15:00:00 27,9 9,7 36,4 22,2 18,5 9 5 18 10 SE 1010,2 17 0,0
16.07.2018 14:00:00 27,1 10,7 36,1 21,8 18,4 9 5 25 13 S 1011,1 16 0,0
16.07.2018 13:00:00 25,7 11,8 33,6 21,6 18,4 12 6 21 12 E 1011,6 20 0,0
16.07.2018 12:00:00 25,0 14,2 29,0 21,5 18,4 6 4 15 8 ESE 1012,4 20 0,0
16.07.2018 11:00:00 23,1 13,3 26,3 21,4 18,4 6 3 16 9 ESE 1012,8 20 0,0
16.07.2018 10:00:00 21,3 14,7 21,5 21,5 18,4 5 3 12 6 ENE 1013,3 20 0,0
16.07.2018 09:00:00 18,9 15,2 16,6 21,6 18,4 5 3 10 5 E 1014,3 20 0,0
16.07.2018 08:00:00 16,9 14,2 13,4 21,8 18,4 4 2 9 5 E 1014,8 19 0,0
16.07.2018 07:00:00 14,3 13,7 10,8 22,0 18,4 3 2 9 5 SW 1015,1 19 0,0
16.07.2018 06:00:00 13,2 12,6 10,6 22,2 18,4 5 3 8 4 S 1015,3 10 0,0
16.07.2018 05:00:00 14,3 13,7 11,3 22,4 18,4 2 1 7 4 SSW 1015,0 12 0,2
16.07.2018 04:00:00 14,1 13,3 11,6 22,6 18,4 4 2 8 5 W 1015,5 9 0,0
16.07.2018 03:00:00 14,8 14,0 11,8 22,8 18,4 5 3 6 3 WNW 1015,6 10 0,0
16.07.2018 02:00:00 15,3 13,7 12,2 23,0 18,4 5 3 11 6 SSE 1015,8 20 0,0
16.07.2018 01:00:00 16,5 14,5 13,0 23,2 18,4 5 3 9 5 E 1015,6 20 0,0
16.07.2018 00:00:00 17,2 14,5 14,8 23,3 18,4 8 4 29 16 ENE 1015,7 20 0,0
15.07.2018 23:00:00 18,1 14,2 15,6 23,5 18,4 13 7 23 12 S 1015,0 20 0,2
15.07.2018 22:00:00 19,3 13,7 17,7 23,6 18,4 10 5 18 10 E 1015,2 20 0,0
15.07.2018 21:00:00 20,0 14,4 19,1 23,6 18,4 8 4 20 11 S 1015,7 20 0,0
15.07.2018 20:00:00 20,5 14,4 20,4 23,6 18,4 16 9 29 16 ENE 1014,7 20 0,0
15.07.2018 19:00:00 22,2 11,9 22,6 23,6 18,4 12 7 43 23 ESE 1014,1 20 0,0
15.07.2018 18:00:00 25,3 14,1 26,5 23,4 18,4 14 7 24 13 ESE 1012,5 20 0,0
15.07.2018 17:00:00 27,4 14,1 33,1 23,1 18,4 11 6 28 15 SE 1011,9 20 0,0
15.07.2018 16:00:00 30,4 11,4 31,1 22,8 18,4 7 4 27 15 NW 1011,4 20 0,0
15.07.2018 15:00:00 28,8 12,2 31,6 22,4 18,3 9 5 20 11 NNW 1012,0 20 0,0
15.07.2018 14:00:00 29,3 13,1 34,6 22,0 18,3 7 4 20 11 NW 1012,5 20 0,0
15.07.2018 13:00:00 27,8 13,3 33,6 21,8 18,4 8 4 16 9 NE 1013,5 20 0,0
15.07.2018 12:00:00 26,1 13,6 29,8 21,7 18,4 4 2 18 10 ENE 1014,4 20 0,0
15.07.2018 11:00:00 24,6 15,0 26,5 21,7 18,4 9 5 23 12 E 1014,9 20 0,0
15.07.2018 10:00:00 22,7 13,7 23,5 21,7 18,3 11 6 26 14 E 1015,7 20 0,0
15.07.2018 09:00:00 21,4 13,8 20,8 21,8 18,3 13 7 26 14 E 1016,2 20 0,0
15.07.2018 08:00:00 19,7 14,1 16,8 21,9 18,3 10 5 20 11 ESE 1016,2 20 0,0
15.07.2018 07:00:00 17,8 13,7 13,4 22,1 18,3 5 3 13 7 E 1016,1 20 0,0
15.07.2018 06:00:00 16,4 13,1 13,5 22,3 18,4 3 1 5 3 E 1016,1 20 0,0
15.07.2018 05:00:00 17,7 13,6 15,3 22,5 18,4 5 3 8 4 NNW 1015,8 20 0,0
15.07.2018 04:00:00 18,8 13,2 15,1 22,6 18,3 1 1 14 8 N 1015,9 20 0,0
15.07.2018 03:00:00 20,1 13,3 15,9 22,7 18,3 6 3 10 6 S 1015,8 20 0,0
15.07.2018 02:00:00 20,6 13,5 17,1 22,9 18,3 4 2 9 5 SSE 1016,0 20 0,0
15.07.2018 01:00:00 21,1 13,5 18,6 23,0 18,3 4 2 7 4 SE 1016,0 20 0,0
15.07.2018 00:00:00 22,4 13,5 19,8 23,2 18,3 5 3 9 5 NE 1015,6 20 0,0
14.07.2018 23:00:00 22,5 13,6 19,7 23,3 18,3 5 3 9 5 NE 1015,4 20 0,0
14.07.2018 22:00:00 23,8 12,7 20,6 23,3 18,3 5 3 8 5 E 1015,2 20 0,0
14.07.2018 21:00:00 24,6 13,2 22,1 23,3 18,3 5 3 17 9 ESE 1014,9 20 0,0
14.07.2018 20:00:00 26,4 12,8 26,3 23,2 18,3 9 5 16 9 E 1014,4 20 0,0
14.07.2018 19:00:00 27,3 12,1 29,5 23,0 18,3 5 3 18 10 E 1014,4 20 0,0
14.07.2018 18:00:00 29,4 10,5 35,4 22,7 18,3 6 3 24 13 N 1014,4 20 0,0
14.07.2018 17:00:00 29,6 11,2 38,2 22,4 18,3 15 8 26 14 NE 1014,7 20 0,0
14.07.2018 16:00:00 29,5 10,6 34,2 22,1 18,3 11 6 23 13 NNE 1015,1 20 0,0
14.07.2018 15:00:00 28,5 10,2 33,9 21,8 18,3 11 6 22 12 N 1015,6 20 0,0
14.07.2018 14:00:00 27,6 12,0 33,0 21,5 18,3 13 7 29 16 NNE 1016,1 20 0,0
14.07.2018 13:00:00 28,1 12,4 34,7 21,2 18,3 8 4 21 12 E 1016,5 20 0,0
14.07.2018 12:00:00 26,6 12,6 29,9 21,0 18,3 6 4 18 10 E 1017,1 20 0,0
14.07.2018 11:00:00 24,9 15,0 27,6 21,0 18,3 8 5 16 9 E 1017,5 20 0,0
14.07.2018 10:00:00 23,4 13,3 24,3 21,0 18,3 9 5 18 10 ESE 1018,2 8 0,0
14.07.2018 09:00:00 21,3 13,5 20,1 21,2 18,3 5 3 10 5 E 1018,6 20 0,0
14.07.2018 08:00:00 19,2 13,6 14,8 21,3 18,3 3 2 6 3 NE 1018,8 18 0,0
14.07.2018 07:00:00 15,9 13,4 11,7 21,5 18,3 3 1 5 3 NNW 1019,3 20 0,0
14.07.2018 06:00:00 14,6 12,3 11,8 21,7 18,3 3 2 8 4 NNW 1019,1 20 0,0
14.07.2018 05:00:00 14,9 11,9 12,0 21,9 18,3 1 1 4 2 NNW 1019,4 20 0,0
14.07.2018 04:00:00 15,4 12,2 12,9 22,0 18,3 3 2 5 3 S 1019,2 20 0,0
14.07.2018 03:00:00 16,5 12,6 14,1 22,2 18,3 1 1 4 2 NW 1019,0 20 0,0
14.07.2018 02:00:00 17,5 12,8 14,5 22,4 18,3 3 2 6 3 NNW 1018,8 20 0,0
14.07.2018 01:00:00 18,6 12,8 15,4 22,5 18,3 2 1 5 3 N 1018,6 20 0,0
14.07.2018 00:00:00 20,0 13,0 17,2 22,7 18,3 5 3 6 4 NW 1018,4 20 0,0
13.07.2018 23:00:00 20,7 12,4 17,4 22,8 18,3 4 2 13 7 N 1018,2 20 0,0
13.07.2018 22:00:00 22,6 11,3 18,9 22,8 18,3 6 3 8 5 WNW 1017,5 19 0,0
13.07.2018 21:00:00 25,2 11,4 23,1 22,8 18,3 5 3 8 4 W 1016,5 19 0,0
13.07.2018 20:00:00 27,1 12,7 27,5 22,7 18,3 6 3 14 7 NNW 1015,9 20 0,0
13.07.2018 19:00:00 28,5 12,0 32,8 22,5 18,3 7 4 21 11 NW 1015,9 20 0,0
13.07.2018 18:00:00 28,9 11,5 30,1 22,3 18,3 9 5 20 11 NW 1015,9 20 0,0
13.07.2018 17:00:00 27,6 12,4 29,0 22,0 18,3 3 2 14 7 SSW 1016,4 20 0,0
13.07.2018 16:00:00 26,8 11,3 30,7 21,6 18,3 6 3 18 10 SE 1016,8 20 0,0
13.07.2018 15:00:00 26,5 11,4 28,9 21,3 18,3 7 4 19 11 NE 1017,1 19 0,0
13.07.2018 14:00:00 26,9 11,8 34,5 21,0 18,3 10 5 25 13 ENE 1017,3 20 0,0
13.07.2018 13:00:00 25,7 12,2 30,9 20,7 18,3 10 6 27 14 ENE 1017,8 20 0,0
13.07.2018 12:00:00 24,3 13,8 27,2 20,6 18,3 14 7 24 13 ENE 1018,4 20 0,0
13.07.2018 11:00:00 22,8 12,7 25,3 20,5 18,3 16 9 29 15 NE 1018,6 19 0,0
13.07.2018 10:00:00 21,0 13,4 21,2 20,5 18,3 11 6 21 11 E 1019,0 20 0,0
13.07.2018 09:00:00 19,0 13,4 18,2 20,7 18,3 10 5 21 11 E 1019,2 20 0,0
13.07.2018 08:00:00 17,1 12,8 12,9 20,8 18,3 5 3 10 5 E 1019,3 20 0,0
13.07.2018 07:00:00 14,9 12,9 10,6 21,0 18,3 4 2 6 4 NNE 1019,6 20 0,0
13.07.2018 06:00:00 12,9 11,6 10,2 21,2 18,3 2 1 6 3 ENE 1020,0 18 0,0
13.07.2018 05:00:00 13,7 12,1 10,7 21,4 18,3 4 2 5 3 NNE 1019,6 20 0,0
13.07.2018 04:00:00 13,5 11,7 10,6 21,6 18,3 1 1 5 3 N 1019,5 19 0,0
13.07.2018 03:00:00 14,9 11,9 10,6 21,7 18,3 4 2 5 3 ENE 1019,2 20 0,0
13.07.2018 02:00:00 15,1 11,9 11,5 21,9 18,3 2 1 5 3 E 1019,1 20 0,0
13.07.2018 01:00:00 15,9 12,3 13,2 22,1 18,3 1 1 5 3 SE 1019,0 20 0,0
13.07.2018 00:00:00 16,9 12,6 13,4 22,3 18,3 4 2 9 5 SE 1018,9 20 0,0
12.07.2018 23:00:00 18,7 12,7 14,3 22,4 18,3 3 2 10 5 E 1018,3 20 0,0
12.07.2018 22:00:00 19,4 12,9 16,0 22,5 18,3 4 2 14 8 ENE 1017,8 20 0,0
12.07.2018 21:00:00 20,8 13,0 18,9 22,5 18,4 9 5 25 14 ENE 1017,1 20 0,0
12.07.2018 20:00:00 22,3 12,5 21,6 22,4 18,3 14 7 24 13 ENE 1016,5 20 0,0
12.07.2018 19:00:00 24,2 11,2 24,8 22,2 18,3 8 4 24 13 ESE 1015,9 20 0,0
12.07.2018 18:00:00 23,5 10,9 25,2 21,9 18,3 12 6 23 12 ENE 1015,9 20 0,0
12.07.2018 17:00:00 23,6 11,0 26,3 21,6 18,3 10 6 32 18 E 1016,0 19 0,0
12.07.2018 16:00:00 25,0 11,9 31,1 21,2 18,3 9 5 24 13 E 1016,0 17 0,0
12.07.2018 15:00:00 24,3 11,6 33,1 20,8 18,3 10 5 33 18 E 1016,2 20 0,0
12.07.2018 14:00:00 23,6 10,6 30,9 20,5 18,4 9 5 23 13 ESE 1016,4 20 0,0
12.07.2018 13:00:00 22,9 11,0 28,5 20,2 18,3 10 5 21 12 ENE 1016,8 20 0,0
12.07.2018 12:00:00 21,5 9,4 25,6 20,1 18,3 12 6 27 14 ESE 1017,1 20 0,0
12.07.2018 11:00:00 20,4 9,6 23,5 20,1 18,3 11 6 22 12 E 1017,1 20 0,0
12.07.2018 10:00:00 19,5 11,0 19,6 20,1 18,3 7 4 19 10 E 1017,4 20 0,0
12.07.2018 09:00:00 17,1 10,2 15,4 20,2 18,3 5 3 10 5 E 1017,7 20 0,0
12.07.2018 08:00:00 15,2 10,8 11,3 20,4 18,4 2 1 8 4 E 1017,8 20 0,0
12.07.2018 07:00:00 12,5 10,2 7,9 20,6 18,3 3 1 5 3 ENE 1018,1 20 0,0
12.07.2018 06:00:00 9,9 8,5 7,9 20,8 18,3 3 2 6 4 WNW 1018,4 20 0,0
12.07.2018 05:00:00 10,8 9,2 8,7 21,0 18,4 4 2 7 4 NNW 1018,2 20 0,0
12.07.2018 04:00:00 11,5 9,4 9,0 21,2 18,4 1 1 5 3 N 1018,1 20 0,0
12.07.2018 03:00:00 12,0 9,7 9,2 21,4 18,3 1 1 4 2 NE 1018,0 20 0,0
12.07.2018 02:00:00 12,7 9,7 10,0 21,5 18,3 2 1 6 4 E 1018,1 20 0,0
12.07.2018 01:00:00 13,9 9,7 11,3 21,7 18,4 3 2 6 4 SE 1018,1 20 0,0
12.07.2018 00:00:00 16,0 9,9 12,2 21,8 18,3 3 2 12 6 ESE 1017,9 20 0,0
11.07.2018 23:00:00 16,8 9,9 14,4 21,9 18,4 5 3 12 6 NE 1017,7 20 0,0
11.07.2018 22:00:00 18,0 9,3 15,7 21,9 18,4 4 2 16 8 ENE 1017,3 20 0,0
11.07.2018 21:00:00 19,1 9,8 18,7 21,9 18,4 13 7 20 11 NE 1016,6 20 0,0
11.07.2018 20:00:00 21,5 8,0 23,6 21,8 18,4 11 6 27 14 NW 1015,9 20 0,0
11.07.2018 19:00:00 22,1 8,2 25,8 21,6 18,3 14 8 25 14 NW 1015,5 20 0,0
11.07.2018 18:00:00 22,2 8,0 23,3 21,5 18,3 11 6 29 16 W 1015,5 20 0,0
11.07.2018 17:00:00 21,6 7,4 22,6 21,2 18,3 13 7 29 16 NW 1015,7 20 0,0
11.07.2018 16:00:00 22,2 10,0 22,1 21,0 18,3 11 6 36 20 WNW 1015,6 20 0,0
11.07.2018 15:00:00 20,7 8,0 23,2 20,7 18,3 9 5 33 18 WNW 1016,0 20 0,0
11.07.2018 14:00:00 22,2 8,7 22,8 20,5 18,3 13 7 27 15 NW 1015,8 20 0,0
11.07.2018 13:00:00 19,6 8,0 20,1 20,4 18,4 14 8 34 18 NNW 1016,4 20 0,0
11.07.2018 12:00:00 19,1 8,7 19,6 20,2 18,3 11 6 25 14 WNW 1016,5 20 0,0
11.07.2018 11:00:00 18,7 10,3 19,3 20,3 18,3 6 3 19 11 W 1016,6 20 0,0
11.07.2018 10:00:00 17,1 10,7 17,2 20,3 18,3 10 5 18 10 WSW 1017,0 20 0,0
11.07.2018 09:00:00 15,0 10,0 13,8 20,5 18,3 8 5 16 9 WSW 1017,3 19 0,0
11.07.2018 08:00:00 13,0 9,4 9,6 20,7 18,3 5 3 10 6 WSW 1017,5 20 0,0
11.07.2018 07:00:00 10,5 8,9 6,7 20,9 18,3 4 2 8 4 SW 1017,9 20 0,0
11.07.2018 06:00:00 9,0 7,8 6,1 21,1 18,3 4 2 6 4 W 1018,1 19 0,0

tt = Température de l'air
td = dewpoint
tt 5cm = Température de l'air 5cm
tt -20cm = Température de l'air -20cm
tt -100cm = Température de l'air -100cm
ff = Vitesse du vent
fx = gusts
dd = Direction du vent
ppp = reduced air pressure
vv = visibility
rr = Quantités de précipitations

stations d'obs. à proximité